Location: Diati
(11.8376°N, 2.5966°E)
Time: 17:57:58
(UTC+00:00)

Cosmos 1680 Rocket - Pass Details

Date: 21 September 2020
Orbit: 760 x 781 km, 74.1° (Epoch: 19 October)

Event Time Altitude Azimuth Distance (km) Brightness Sun altitude
Rises 18:55:27 0° 338° (NNW) 3,225 7.1 -17.8°
Reaches altitude 10° 18:57:52 10° 333° (NNW) 2,302 6.4 -18.4°
Maximum altitude 19:02:55 50° 258° (WSW) 971 4.4 -19.6°
Drops below altitude 10° 19:07:59 10° 184° (S) 2,315 6.0 -20.8°
Sets 19:10:26 0° 179° (S) 3,245 6.7 -21.4°
